Location: *
(43.0833°N, 13.0500°E)
Time: 17:59:50
(UTC+00:00)

SeaSat 1 - Pass Details

Date: 15 November 2019
Orbit: 745 x 747 km, 108.0° (Epoch: 14 December)

Event Time Altitude Azimuth Distance (km) Brightness Sun altitude
Rises 16:33:14 0° 138° (SE) 3,175 5.4 -9.2°
Reaches altitude 10° 16:35:32 10° 133° (SE) 2,255 4.6 -9.6°
Maximum altitude 16:40:17 52° 58° (ENE) 921 2.6 -10.4°
Drops below altitude 10° 16:45:04 10° 342° (NNW) 2,270 5.0 -11.2°
Sets 16:47:23 0° 338° (NNW) 3,198 5.8 -11.7°
